Location: Slemon Park
(46.4340°N, 63.8219°W)
Time: 09:29:49
(UTC-03:00)

Daily predictions for brighter satellites

Satellite Brightness Start Highest point End
(mag) Time Altitude Azimuth Time Altitude Azimuth Time Altitude Azimuth
Cosmos 1269 Rocket 4.0 21:42:33 10° S 21:47:48 69° ESE 21:53:06 10° NNE
Cosmos 2263 Rocket 4.0 21:44:02 10° WSW 21:49:19 38° NW 21:54:36 10° NNE
ATLAS 2AS CENTAUR R/B 3.1 21:43:13 10° SSW 21:50:57 65° ESE 21:58:59 10° NE
Helios 1B rocket 4.3 21:52:30 10° ENE 21:54:38 14° E 21:56:47 10° ESE
Helios 1A 4.2 21:52:19 10° SE 21:55:58 29° ENE 21:59:37 10° N
Cosmos 1842 Rocket 4.5 21:53:56 10° N 21:57:53 33° ENE 22:01:49 10° SE
Cosmos 1908 3.4 21:54:46 10° N 21:58:36 59° E 22:02:25 10° SSE
NOSS 3-2 (C) 4.5 21:51:33 10° NW 21:58:45 54° NE 22:06:42 10° ESE
Cosmos 1553 Rocket 4.3 21:55:22 10° SSE 22:01:07 47° E 22:06:56 10° NNE
Meteor 2-5 Rocket 4.3 21:57:00 10° SSW 22:02:54 67° WNW 22:08:47 10° N
In-Cosmos 22 4.4 21:57:58 10° SSW 22:03:33 82° WNW 22:09:17 10° N
Cosmos 1340 3.3 22:00:32 10° N 22:04:10 42° ENE 22:07:44 10° SSE
Iridium 4 Rocket 4.1 22:00:13 10° SSW 22:05:44 65° W 22:10:50 10° N
Cosmos 1302 Rocket 4.5 22:03:14 10° NNW 22:08:25 51° ENE 22:13:21 11° SE
MetOp-B 4.2 22:03:27 10° SSE 22:08:49 88° WSW 22:14:13 10° NNW
Cosmos 1953 Rocket 4.0 22:06:58 10° SSW 22:11:17 64° W 22:15:41 10° N
ERS-1 Rocket 3.0 22:07:13 10° SSE 22:12:14 75° ENE 22:17:17 10° N
Meteor 2-1 Rocket 4.4 22:08:58 10° N 22:14:56 83° E 22:20:50 10° SSE
Cosmos 1437 4.0 22:12:48 10° NNW 22:15:46 37° W 22:18:43 10° SSW
USA 215 4.3 22:12:18 10° SSE 22:18:15 36° SW 22:24:14 10° WNW
Meteor 2-10 4.2 22:12:56 10° N 22:18:21 69° ENE 22:23:51 10° SSE
Cosmos 1674 2.7 22:17:14 10° S 22:21:02 89° ESE 22:24:55 10° N
Cosmos 2251 Rocket 4.0 22:17:58 10° S 22:22:59 42° ESE 22:27:58 10° NE
Cosmos 1300 3.5 22:20:06 10° N 22:23:40 36° ENE 22:26:29 15° SE
CENTAUR R/B 3.9 22:16:53 10° NW 22:24:14 46° NE 22:32:16 10° ESE
Terra 2.7 22:23:37 13° SE 22:27:27 36° ENE 22:31:48 10° N
Cosmos 2221 3.4 22:24:11 10° N 22:28:11 35° ENE 22:31:18 15° SE
NOSS 3-4 (A) 4.0 22:22:56 10° S 22:28:28 36° ESE 22:34:13 10° NE
NOSS 3-4 (C) 4.0 22:23:02 10° S 22:28:33 36° ESE 22:34:18 10° NE
Cosmos 1726 2.2 22:25:22 10° N 22:29:09 84° W 22:32:39 12° S
Resurs 01 Rocket 4.2 22:27:01 10° SW 22:29:40 16° W 22:32:21 10° NW
RESURS DK-1 4.5 22:30:13 10° ESE 22:30:46 11° E 22:31:41 10° E
Cosmos 921 Rocket 4.0 22:27:46 10° NNW 22:32:04 45° WSW 22:36:21 10° S
Meteor 1-29 4.1 22:37:36 10° NE 22:40:31 26° E 22:41:59 19° SE
ARGOS 4.4 22:38:00 10° SSW 22:43:01 38° W 22:48:05 10° NNW
CZ-2C R/B 3.8 22:38:29 15° SE 22:43:06 48° ENE 22:48:34 10° N
SL-8 R/B 3.6 22:38:46 10° WSW 22:43:36 80° SSE 22:48:26 10° ENE
Cosmos 2278 Rocket 2.4 22:38:29 10° S 22:43:57 52° ESE 22:49:27 10° NE
Cosmos 1461 3.4 22:41:59 10° SSW 22:46:28 49° ESE 22:51:05 10° NE
APEX 3.4 22:49:54 10° NW 22:52:57 53° WSW 22:55:16 19° S
Cosmos 1745 Rocket 4.1 22:47:14 10° N 22:53:35 78° W 22:59:18 13° S
Meteor 1-21 Rocket 4.3 22:48:04 10° S 22:53:56 80° E 22:59:44 10° NNE
Meteor 2-13 Rocket 4.5 22:48:21 10° N 22:54:28 83° W 22:59:47 14° S
NOSS 2-2 (D) 4.2 22:55:16 21° SSE 22:56:58 29° ESE 23:00:44 10° NE
COSMOS 2406 4.1 22:54:09 10° NW 22:59:33 42° WSW 23:04:22 13° S
IGS 5A 3.4 22:56:50 20° SSE 22:59:39 82° ENE 23:03:50 10° NNW
Cosmos 220 Rocket 4.1 22:56:19 10° SSW 23:00:32 73° WNW 23:04:45 10° NNE
Cosmos 1844 Rocket 3.9 22:55:31 10° SW 23:00:54 44° NW 23:06:20 10° NNE
ATLAS 3B R/B 3.2 23:01:49 10° NW 23:08:07 48° WSW 23:12:52 17° S
CARTOSAT-1 3.6 23:06:45 21° S 23:09:37 81° WSW 23:13:58 10° NNW
SPOT 5 3.7 23:06:25 14° S 23:10:44 52° W 23:15:55 10° NNW
SL-14 R/B 3.5 23:09:27 15° SSW 23:12:39 70° W 23:16:36 10° N
ATLAS 5 CENTAUR R/B 1.8 23:14:23 15° SSW 23:17:56 52° ESE 23:22:44 10° NE
Lacrosse 5 3.6 23:14:43 10° W 23:19:24 36° NNW 23:24:04 10° NE
Cosmos 1076 Rocket 3.4 23:18:58 24° S 23:21:24 71° E 23:25:39 10° NNE
NOSS 2-2 (C) 3.5 23:20:40 22° SSW 23:22:57 52° ESE 23:27:14 10° NE
SL-08 ROCKET BODY 4.5 23:16:55 10° N 23:23:10 76° E 23:27:10 23° SSE
H-2A R/B 4.2 23:20:45 10° SW 23:24:42 21° W 23:28:45 10° NW
SL-27 R/B 2.8 23:21:36 10° NNW 23:25:13 57° ENE 23:26:36 32° SE
Cosmos 1709 Rocket 4.0 23:20:37 10° N 23:26:53 85° W 23:31:05 22° S
Cosmos 2297 4.1 23:25:02 23° SSE 23:28:13 46° ESE 23:33:38 10° NE
Cosmos 2082 Rocket 2.2 23:23:52 10° NNW 23:29:37 82° ENE 23:33:00 26° SSE
Helios 1B rocket 2.9 23:26:15 10° N 23:30:18 58° WNW 23:33:40 14° SSW
Cosmos 1833 Rocket 2.6 23:24:42 10° NNW 23:30:22 89° WSW 23:33:38 26° SSE
Mayak 0.7 23:28:42 10° NE 23:30:59 14° E 23:31:36 14° E
Cosmos 1408 Rocket 4.3 23:30:35 28° SE 23:32:14 38° E 23:36:23 10° NNE
Cosmos 1626 2.2 23:31:41 26° SSW 23:33:40 76° W 23:37:25 10° N
Cosmos 1766 Rocket 3.9 23:31:48 30° SSE 23:33:40 49° E 23:38:00 10° NNE
CZ-2C R/B 2.6 23:31:00 10° NNE 23:36:26 68° ESE 23:39:35 25° S
Meteor 1-27 4.4 23:31:31 10° N 23:37:22 66° ENE 23:40:39 27° SSE
Cosmos 1703 3.4 23:36:57 36° SSE 23:38:15 55° E 23:42:04 10° NNE
YAOGAN 11 4.4 23:36:51 27° S 23:39:18 66° WSW 23:43:51 10° NNW
Cosmos 2074 Rocket 4.3 23:34:47 10° N 23:40:57 55° ENE 23:44:29 26° SE
ATLAS 2AS CENTAUR R/B 4.3 23:34:53 10° WSW 23:42:27 44° NW 23:50:09 10° NE
Meteor 2-19 Rocket 4.4 23:36:34 10° N 23:42:45 88° WSW 23:46:29 26° S
Cosmos 2058 3.7 23:41:41 30° SE 23:42:48 36° E 23:46:36 10° NNE
Cosmos 2151 4.1 23:41:58 26° ESE 23:43:05 30° E 23:46:47 10° NNE
Aureole 3 Rocket 4.0 23:37:55 18° S 23:43:44 89° W 23:49:06 10° N
EO 1 Delta rocket 4.4 23:40:22 10° NNE 23:47:13 78° E 23:50:28 26° S
H-2A R/B 4.1 23:46:13 12° E 23:48:19 17° ENE 23:51:01 10° NNE
Cosmos 1943 Rocket 4.3 23:48:52 10° ESE 23:49:34 10° E 23:50:16 10° E
